sat.trackr.live / text

‹ back to catalog

STARLINK-4004

NORAD 52656 · 2022-053A

PAYLOAD ACTIVE UNKNOWN

§ Identity

Operator
Country
US
Launch date
2022-05-18
Launch site
AFETR
Launch vehicle
Mass (kg)
RCS (m²)

Purposes: comms

External: N2YO · Heavens-Above · Gunter

§ Orbital elements

Epoch: 2026-09-20T05:10:35.058720Z

Period
93.79 min
Inclination
53.1608°
Eccentricity
0.0001274
Mean motion
15.35395689 rev/d
Perigee alt
458.9 km
Apogee alt
460.6 km
Semi-major
6,837.9 km
B*
2.7158e-5
RAAN
348.7442°
Arg perigee
77.6446°
Mean anomaly
282.4699°
Rev number
24,064

§ Raw data

STARLINK-40041 52656U 22053A   26263.21568355  .00000567  00000+0  27158-4 0  99942 52656  53.1608 348.7442 0001274  77.6446 282.4699 15.35395689240649

JSON: /api/v1/satellites/52656 · /tle

For live sub-satellite position, see the globe view (requires WebGL).

§ Visibility from observer

Set your observer location to see the next 7 days of passes ≥ 10°. The values pass through the URL so the page stays shareable.

No JS? Fill the form by hand. The geolocation button needs JavaScript.